Tracking 18980 objects as of 18-Feb-2018
HD Live streaming from Space Station
objects crossing your sky now

FENGYUN 1C DEB

Track FENGYUN 1C DEB now!
10-day predictions


NORAD ID: 31855
Int'l Code: 1999-025CJV
Perigee: 450.9 km
Apogee: 752.9 km
Inclination: 96.7 °
Period: 96.6 minutes
Semi major axis: 6972 km
RCS: 0.0172 m2 (small)
Launch date: May 10, 1999
Source: People's Republic of China (PRC)
Launch site: Taiyaun Space Center, China (TSC)

Note: This is SATELLITE DEBRIS
aabbcc
Your satellite tracking list
Your tracking list is empty




NASA's NSSDC Master Catalog

Two Line Element Set (TLE):
1 31855U 99025CJV 18048.19156032 +.00001867 +00000-0 +12411-3 0  9999
2 31855 096.6501 036.5463 0216506 226.2071 132.1066 14.91014540216140
Source of the keplerian elements: AFSPC